Previsão horária em Abdaevo

Hoje, 19 Janeiro, Terça-feira

Tempo Temperatura Precipitação Vento Pressão Humidade
00:00 -23°C° 0 mm 1 m/s 746 mmHg 95%
01:00 -23°C° 0 mm 1 m/s 746 mmHg 95%
02:00 -22°C° 0 mm 1 m/s 746 mmHg 95%
03:00 -22°C° 0 mm 1 m/s 746 mmHg 95%
04:00 -22°C° 0 mm 1 m/s 746 mmHg 95%
05:00 -21°C° 0 mm 1 m/s 746 mmHg 95%
06:00 -21°C° 0 mm 1 m/s 745 mmHg 95%
07:00 -21°C° 0 mm 1 m/s 745 mmHg 95%
08:00 -20°C° 0 mm 1 m/s 745 mmHg 94%
09:00 -20°C° 0 mm 1 m/s 745 mmHg 94%
10:00 -19°C° 0 mm 1 m/s 745 mmHg 92%
11:00 -18°C° 0 mm 1 m/s 745 mmHg 91%
12:00 -18°C° 0 mm 1 m/s 745 mmHg 89%
13:00 -17°C° 0.1 mm 1 m/s 744 mmHg 91%
14:00 -17°C° 0.1 mm 1 m/s 744 mmHg 92%
15:00 -17°C° 0.1 mm 1 m/s 744 mmHg 94%
16:00 -18°C° 0 mm 1 m/s 744 mmHg 95%
17:00 -18°C° 0 mm 1 m/s 743 mmHg 96%
18:00 -19°C° 0 mm 1 m/s 743 mmHg 97%
19:00 -19°C° 0.1 mm 1 m/s 743 mmHg 97%
20:00 -19°C° 0.1 mm 1 m/s 743 mmHg 97%
21:00 -19°C° 0.1 mm 1 m/s 743 mmHg 97%
22:00 -19°C° 0.1 mm 1 m/s 743 mmHg 97%
23:00 -19°C° 0.1 mm 1 m/s 743 mmHg 97%

Amanhã, 20 Janeiro, Quarta-feira

Tempo Temperatura Precipitação Vento Pressão Humidade
00:00 -19°C° 0.1 mm 1 m/s 743 mmHg 97%
01:00 -19°C° 0 mm 1 m/s 743 mmHg 97%
02:00 -19°C° 0 mm 1 m/s 743 mmHg 97%
03:00 -19°C° 0 mm 1 m/s 743 mmHg 97%
04:00 -19°C° 0 mm 1 m/s 743 mmHg 97%
05:00 -19°C° 0 mm 1 m/s 742 mmHg 97%
06:00 -19°C° 0 mm 1 m/s 742 mmHg 97%
07:00 -19°C° 0 mm 1 m/s 743 mmHg 96%
08:00 -21°C° 0 mm 2 m/s 743 mmHg 96%
09:00 -21°C° 0 mm 2 m/s 743 mmHg 95%
10:00 -20°C° 0 mm 2 m/s 743 mmHg 94%
11:00 -19°C° 0 mm 2 m/s 743 mmHg 93%
12:00 -19°C° 0 mm 2 m/s 743 mmHg 92%
13:00 -19°C° 0 mm 2 m/s 743 mmHg 93%
14:00 -18°C° 0 mm 2 m/s 743 mmHg 93%
15:00 -18°C° 0 mm 2 m/s 743 mmHg 94%
16:00 -19°C° 0 mm 2 m/s 744 mmHg 95%
17:00 -20°C° 0 mm 2 m/s 744 mmHg 97%
18:00 -21°C° 0 mm 2 m/s 744 mmHg 98%
19:00 -21°C° 0 mm 2 m/s 744 mmHg 98%
20:00 -21°C° 0 mm 2 m/s 744 mmHg 98%
21:00 -21°C° 0 mm 2 m/s 744 mmHg 98%
22:00 -21°C° 0 mm 2 m/s 744 mmHg 97%
23:00 -20°C° 0 mm 2 m/s 744 mmHg 97%

Depois de amanhã, 21 Janeiro, Quinta-feira

Tempo Temperatura Precipitação Vento Pressão Humidade
00:00 -20°C° 0 mm 2 m/s 744 mmHg 97%
01:00 -20°C° 0 mm 2 m/s 744 mmHg 97%
02:00 -20°C° 0 mm 2 m/s 745 mmHg 97%
03:00 -20°C° 0 mm 2 m/s 745 mmHg 97%
04:00 -20°C° 0 mm 2 m/s 745 mmHg 97%
05:00 -19°C° 0 mm 2 m/s 745 mmHg 97%
06:00 -21°C° 0 mm 3 m/s 745 mmHg 96%
07:00 -21°C° 0 mm 3 m/s 745 mmHg 96%
08:00 -19°C° 0 mm 3 m/s 745 mmHg 95%
09:00 -19°C° 0 mm 3 m/s 745 mmHg 95%
10:00 -19°C° 0 mm 3 m/s 745 mmHg 95%
11:00 -18°C° 0 mm 3 m/s 745 mmHg 95%
12:00 -18°C° 0 mm 3 m/s 745 mmHg 94%
13:00 -17°C° 0 mm 3 m/s 745 mmHg 94%
14:00 -17°C° 0 mm 3 m/s 745 mmHg 94%
15:00 -17°C° 0 mm 3 m/s 745 mmHg 94%
16:00 -17°C° 0 mm 3 m/s 744 mmHg 93%
17:00 -17°C° 0 mm 3 m/s 744 mmHg 93%
18:00 -17°C° 0 mm 3 m/s 743 mmHg 92%
19:00 -18°C° 0 mm 4 m/s 743 mmHg 91%
20:00 -17°C° 0 mm 4 m/s 742 mmHg 91%
21:00 -18°C° 0 mm 5 m/s 741 mmHg 90%
22:00 -17°C° 0.5 mm 5 m/s 740 mmHg 91%
23:00 -17°C° 0.5 mm 5 m/s 740 mmHg 92%

22 Janeiro, Sexta-feira

Tempo Temperatura Precipitação Vento Pressão Humidade
00:00 -15°C° 0.5 mm 5 m/s 739 mmHg 93%
01:00 -15°C° 0.5 mm 5 m/s 739 mmHg 94%
02:00 -15°C° 0.5 mm 4 m/s 738 mmHg 94%
03:00 -14°C° 0.5 mm 4 m/s 738 mmHg 94%
04:00 -14°C° 0.3 mm 4 m/s 738 mmHg 94%
05:00 -13°C° 0.3 mm 3 m/s 738 mmHg 94%
06:00 -13°C° 0.3 mm 3 m/s 738 mmHg 95%
07:00 -10°C° 0.2 mm 2 m/s 738 mmHg 95%
08:00 -10°C° 0.2 mm 2 m/s 738 mmHg 95%
09:00 -9°C° 0.2 mm 1 m/s 738 mmHg 96%
10:00 -8°C° 0.1 mm 1 m/s 739 mmHg 95%
11:00 -7°C° 0.1 mm 1 m/s 739 mmHg 94%
12:00 -6°C° 0.1 mm 1 m/s 739 mmHg 93%
13:00 -6°C° 0.1 mm 1 m/s 739 mmHg 94%
14:00 -6°C° 0.1 mm 1 m/s 739 mmHg 95%
15:00 -6°C° 0.1 mm 1 m/s 739 mmHg 96%
16:00 -7°C° 0.5 mm 2 m/s 740 mmHg 96%
17:00 -7°C° 0.5 mm 2 m/s 740 mmHg 96%
18:00 -8°C° 0.5 mm 3 m/s 740 mmHg 96%
19:00 -8°C° 0.5 mm 3 m/s 740 mmHg 96%
20:00 -7°C° 0.5 mm 2 m/s 740 mmHg 96%
21:00 -7°C° 0.5 mm 2 m/s 740 mmHg 96%
22:00 -7°C° 0.1 mm 2 m/s 741 mmHg 96%
23:00 -7°C° 0.1 mm 2 m/s 741 mmHg 96%

23 Janeiro, Sábado

Tempo Temperatura Precipitação Vento Pressão Humidade
00:00 -8°C° 0.1 mm 2 m/s 742 mmHg 96%
01:00 -6°C° 0.1 mm 1 m/s 742 mmHg 96%
02:00 -6°C° 0.1 mm 1 m/s 742 mmHg 96%
03:00 -4°C° 0.1 mm 1 m/s 742 mmHg 97%
04:00 -5°C° 0.1 mm 2 m/s 742 mmHg 97%
05:00 -4°C° 0.1 mm 2 m/s 742 mmHg 97%
06:00 -3°C° 0.1 mm 2 m/s 742 mmHg 98%
07:00 -2°C° 0.3 mm 3 m/s 742 mmHg 98%
08:00 -1°C° 0.3 mm 3 m/s 742 mmHg 99%
09:00 0°C° 0.3 mm 3 m/s 742 mmHg 99%
10:00 0°C° 0.3 mm 3 m/s 742 mmHg 99%
11:00 -1°C° 0.3 mm 4 m/s 742 mmHg 99%
12:00 -1°C° 0.3 mm 4 m/s 742 mmHg 99%
13:00 -1°C° 0.3 mm 4 m/s 742 mmHg 99%
14:00 -1°C° 0.3 mm 4 m/s 742 mmHg 99%
15:00 -1°C° 0.3 mm 4 m/s 742 mmHg 99%
16:00 -1°C° 0.2 mm 4 m/s 742 mmHg 99%
17:00 -1°C° 0.2 mm 4 m/s 743 mmHg 98%
18:00 -1°C° 0.2 mm 4 m/s 743 mmHg 98%
19:00 -2°C° 0 mm 4 m/s 743 mmHg 98%
20:00 -2°C° 0 mm 4 m/s 743 mmHg 97%
21:00 -1°C° 0 mm 3 m/s 743 mmHg 97%
22:00 -1°C° 0 mm 3 m/s 744 mmHg 97%
23:00 -1°C° 0 mm 3 m/s 744 mmHg 97%

24 Janeiro, Domingo

Tempo Temperatura Precipitação Vento Pressão Humidade
00:00 -1°C° 0 mm 3 m/s 744 mmHg 96%
01:00 -1°C° 0 mm 3 m/s 744 mmHg 97%
02:00 -1°C° 0 mm 3 m/s 744 mmHg 97%
03:00 -1°C° 0 mm 3 m/s 744 mmHg 97%
04:00 -1°C° 0.2 mm 3 m/s 743 mmHg 97%
05:00 0°C° 0.2 mm 3 m/s 743 mmHg 97%
06:00 0°C° 0.2 mm 3 m/s 743 mmHg 97%
07:00 0°C° 0.2 mm 3 m/s 744 mmHg 98%
08:00 0°C° 0.2 mm 3 m/s 744 mmHg 98%
09:00 0°C° 0.2 mm 3 m/s 744 mmHg 99%
10:00 0°C° 0.1 mm 3 m/s 744 mmHg 99%
11:00 0°C° 0.1 mm 3 m/s 744 mmHg 99%
12:00 0°C° 0.1 mm 3 m/s 745 mmHg 99%
13:00 0°C° 0 mm 3 m/s 745 mmHg 99%
14:00 0°C° 0 mm 3 m/s 745 mmHg 98%
15:00 0°C° 0 mm 3 m/s 745 mmHg 98%
16:00 0°C° 0 mm 3 m/s 746 mmHg 98%
17:00 0°C° 0 mm 3 m/s 746 mmHg 98%
18:00 0°C° 0 mm 3 m/s 747 mmHg 98%
19:00 0°C° 0 mm 3 m/s 747 mmHg 98%
20:00 0°C° 0 mm 3 m/s 747 mmHg 98%
21:00 0°C° 0 mm 3 m/s 747 mmHg 98%
22:00 0°C° 0.1 mm 3 m/s 747 mmHg 98%
23:00 0°C° 0.1 mm 3 m/s 747 mmHg 98%
Mostrar mais